LIEALFKB

Guest
Details From LIEA - Alghero-Fertilia "Riviera del Corallo"
To LFKB - Bastia Poretta
Flight Number -
Tags generated
Created
Modified
Stats Distance 127 nm / 236 km
Max Altitude 16,300 ft / 4,968 m
Waypoints 3
Social Downloads 1
Likes 0
Share

Download

Looking for another format? Having issues loading an existing format? Contact us
Advertisement - Login to hide

Notes

Basic altitude profile: - Ascent Rate: 2500ft/min - Ascent Speed: 250kts - Cruise Altitude: 35000ft - Cruise Speed: 420kts - Descent Rate: 1500ft/min - Descent Speed: 250kts Options: - Use NATs: yes - Use PACOTS: yes - Use low airways: yes - Use high airways: yes

Route

LIEA REVDO LFKB

ID Type Via Altitude (ft/m) Position (lat/lon) Dist (leg/tot) Name
O LIEA APT - 0 / 0 40.63210 / 8.29078 - / 0 nm Alghero-Fertilia "Riviera del Corallo"
REVDO FIX - 16,300 / 4,968 41.33330 / 8.69083 45 / 45 nm
O LFKB APT - 0 / 0 42.55260 / 9.48375 81 / 127 nm Bastia Poretta

Altitude Profile

Advertisement - Login to hide

LIEA

Details ICAO LIEA (AHO)
Name Alghero-Fertilia "Riviera del Corallo"
Region Italy
Timezone Europe/Rome (UTC+2.0)
Stats Elevation 88 ft / 27 m (AMSL)
Location 40.632100° 8.290780°
Runways 1
Magnetic Variation 2.858° E

METAR

LIEA 210420Z VRB02KT CAVOK 04/04 Q1014

Decode

TAF

TAF LIEA 202300Z 2100/2124 VRB05KT CAVOK BECMG 2109/2111 29011KT

Decode

Departure Runways

ID Width Length Bearing (true/mag) Surface Threshold Overrun Markings Lighting
02 148 ft / 45 m 9,852 ft / 3,003 m 24.50° / 21.65° ASPHALT 0 ft / 0 m 0 ft / 0 m PREC-APP CENTERLINE EDGE THRESHOLD MALSF REIL-OMNI
20 148 ft / 45 m 9,852 ft / 3,003 m 204.51° / 201.66° ASPHALT 0 ft / 0 m 0 ft / 0 m PREC-APP CENTERLINE EDGE THRESHOLD MALSF REIL-OMNI

LFKB

Details ICAO LFKB (BIA)
Name Bastia Poretta
Region France
Timezone Europe/Paris (UTC+2.0)
Stats Elevation 24 ft / 7 m (AMSL)
Location 42.552600° 9.483750°
Runways 1
Magnetic Variation 3.170° E

METAR

LFKB 210430Z AUTO 22007KT CAVOK 08/04 Q1014 NOSIG

Decode

TAF

TAF LFKB 210200Z 2103/2203 VRB03KT CAVOK TX18/2111Z TN07/2104Z BECMG 2108/2110 13010KT PROB30 TEMPO 2111/2115 -SHRA FEW040CB BECMG 2121/2123 24005KT

Decode

Destination Runways

ID Width Length Bearing (true/mag) Surface Threshold Overrun Markings Lighting
16 148 ft / 45 m 8,273 ft / 2,522 m 162.83° / 159.66° ASPHALT 0 ft / 0 m 102 ft / 31 m APP CENTERLINE EDGE THRESHOLD TDZ REIL-OMNI
34 148 ft / 45 m 8,273 ft / 2,522 m 342.84° / 339.67° ASPHALT 0 ft / 0 m 0 ft / 0 m PREC-APP CENTERLINE EDGE THRESHOLD TDZ REIL-OMNI

Approach Navaids

Runway Type Ident Frequency Range Bearing (true/mag) Slope Elevation
34 DME BP 111.35 MHz 18 nm / 33 km - - 69 ft / 21 m (AMSL)
34 LOC-ILS BP 111.35 MHz 18 nm / 33 km 342.81° / 339.64 ° - 25 ft / 8 m (AMSL)
34 GS BP 111.35 MHz 10 nm / 19 km 343.62° / 340.45 ° 3.00° 25 ft / 8 m (AMSL)

Popular Alternatives